#timestamp,LO_Frequency,Hit,StdDev 
1623618015.8,286047004.0,N
1623618035.6,286047006.0,Y
1623618055.5,286047001.7,P
1623618075.3,286046999.9,N
1623618095.2,286047002.0,N
1623618115.9,286047003.7,Y
1623618135.7,286047000.2,P
1623618155.6,286047001.7,N
1623618175.4,286047001.6,N
1623618195.3,286047002.4,Y
1623618215.1,286046997.2,P
1623618216.0,286046997.2,N
1623618235.8,286046996.5,N
1623618255.7,286046999.8,N
1623618275.5,286047002.7,N
1623618295.3,286047001.9,N
1623618315.2,286047002.8,N
1623618335.0,286046999.9,N
1623618335.9,286046999.9,N
1623618355.8,286047000.2,N
1623618375.6,286046998.4,N
1623618395.4,286047000.8,N
1623618415.3,286046998.6,N
1623618435.1,286047002.4,N
1623618455.8,286047000.2,N
1623618475.7,286046999.9,N
1623618495.5,286047000.5,N
1623618515.4,286047002.6,N
1623618535.2,286047004.2,N
1623618555.0,286047001.6,N
1623618555.9,286047001.6,N
1623618575.8,286047002.6,N
1623618595.6,286046999.8,N
1623618615.4,286047001.4,N
1623618635.3,286047001.4,N
1623618655.1,286047002.5,N
1623618675.9,286047001.9,N
1623618695.7,286047002.6,N
1623618715.5,286047001.6,N
1623618735.4,286047002.5,N
1623618755.2,286047002.2,N
1623618775.1,286047003.9,N
1623618776.0,286047003.9,N
1623618795.8,286047001.7,N
1623618815.6,286047004.4,Y
1623618835.5,286047002.4,P
1623618855.3,286047001.5,P
1623618875.1,286047001.7,P
1623618895.9,286047001.8,Y
1623618915.7,286047001.1,P
1623618935.6,286047001.2,P
1623618955.4,286046997.0,P
1623618975.2,286046996.6,N
1623618995.1,286046999.2,N
1623618996.0,286046999.2,N
1623619015.8,286046999.0,N
1623619035.7,286046998.1,N
1623619055.5,286047001.0,N
1623619075.3,286047000.0,N
1623619095.2,286046998.7,N
1623619115.9,286046999.0,N
1623619135.7,286046999.1,N
1623619155.6,286046996.9,N
1623619175.4,286046999.0,N
1623619195.2,286046999.0,N
1623619215.1,286047000.3,N
1623619216.0,286047000.3,N
1623619235.8,286047000.4,N
1623619255.7,286047000.5,N
1623619275.5,286047000.8,N
1623619295.3,286046999.0,N
1623619315.2,286046998.3,N
1623619335.0,286046998.6,N
1623619335.9,286046998.6,N
1623619355.7,286047000.8,N
1623619375.6,286047000.9,N
1623619395.4,286047000.6,N
1623619415.3,286046999.9,N
1623619435.1,286047002.5,N
1623619455.8,286047000.2,N
1623619475.7,286047000.1,N
1623619495.5,286047001.2,N
1623619515.4,286046998.8,N
1623619535.2,286046996.5,Y
1623619555.0,286047001.0,P
1623619555.9,286047001.0,N
1623619575.8,286047000.6,N
1623619595.6,286046999.3,N
1623619615.5,286046999.9,N
1623619635.3,286047000.2,N
1623619655.1,286047000.8,N
1623619675.9,286047001.1,N
1623619695.7,286047000.0,N
1623619715.5,286046999.8,N
1623619735.4,286047000.8,N
1623619755.2,286047000.7,N
1623619775.1,286047002.3,Y
1623619776.0,286047002.3,P
1623619795.8,286047000.4,N
1623619815.6,286046997.9,N
1623619835.5,286046996.9,N
1623619855.3,286046997.5,N
1623619875.1,286046997.5,N
1623619895.9,286046999.6,N
1623619915.7,286046999.8,N
1623619935.6,286047002.6,N
1623619955.4,286047002.3,N
1623619975.2,286047000.1,N
1623619995.1,286047000.8,N
1623619996.0,286047000.8,N
1623620015.8,286047000.3,N
1623620035.6,286046999.8,N
1623620055.5,286046998.1,N
1623620075.3,286046999.8,N
1623620095.2,286046999.8,N
1623620115.9,286047000.7,N
1623620135.7,286046998.3,N
1623620155.6,286047000.2,N
1623620175.4,286047002.4,N
1623620195.2,286047000.0,N
1623620215.1,286047002.7,N
1623620216.0,286047002.7,N
1623620235.8,286047002.1,N
1623620255.7,286047001.4,N
1623620275.5,286047002.3,N
1623620295.4,286047000.9,N
1623620315.2,286047000.1,N
1623620335.0,286047002.3,N
1623620335.9,286047002.3,N
1623620355.8,286046999.7,N
1623620375.6,286046998.1,N
1623620395.5,286047000.4,N
1623620415.3,286047001.2,N
1623620435.1,286047000.2,N
1623620455.9,286046999.7,N
1623620475.7,286047001.7,N
1623620495.6,286047002.4,N
1623620515.4,286046999.7,N
1623620535.2,286047000.1,N
1623620555.1,286047002.4,N
1623620556.0,286047002.4,N
1623620575.8,286047001.5,N
1623620595.6,286047001.4,N
1623620615.5,286047002.5,N
1623620635.3,286047000.1,N
1623620655.2,286047011.9,Y
1623620675.0,286046999.9,P
1623620675.9,286046999.9,N
1623620695.8,286046999.8,N
1623620715.6,286047000.6,N
1623620735.4,286047000.4,N
1623620755.3,286046999.8,N
1623620775.1,286047002.5,Y
1623620795.8,286047002.0,P
1623620815.7,286047002.3,N
1623620835.5,286047002.3,N
1623620855.4,286047001.9,N
1623620875.2,286047003.9,Y
1623620895.0,286047002.2,P
1623620895.9,286047002.2,P
1623620915.8,286047001.3,P
1623620935.6,286047001.5,Y
1623620955.5,286046998.7,P
1623620975.3,286046996.7,N
1623620995.1,286046995.0,N
1623621015.9,286046995.9,N
1623621035.7,286046996.4,N
1623621055.5,286046993.9,N
1623621075.4,286046993.9,N
1623621095.2,286046994.4,N
1623621115.1,286046992.5,Y
1623621116.0,286046992.5,P
1623621135.8,286046995.1,N
1623621155.6,286046995.7,N
1623621175.5,286046995.2,Y
1623621195.3,286047002.5,P
1623621215.1,286047002.7,N
1623621235.9,286046999.9,N
1623621255.7,286047000.2,N
1623621275.6,286046999.7,N
1623621295.4,286047000.4,N
1623621315.2,286047000.3,N
1623621335.1,286046999.8,N
1623621336.0,286046999.8,N
1623621355.8,286047000.9,N
1623621375.6,286047000.1,N
1623621395.5,286047000.5,N
1623621415.3,286046998.6,N
1623621435.2,286046999.9,N
1623621455.9,286047000.1,N
1623621475.7,286047001.0,N
1623621495.6,286047001.1,N
1623621515.4,286047000.2,N
1623621535.2,286047002.7,N
1623621555.1,286047000.1,N
1623621556.0,286047000.1,N
1623621575.8,286046998.7,N
1623621595.7,286046999.0,N
